2019 VU5
ephemeris date magn radius delta ra dec elong phase
Today4 Sep 202629.32.464 AU3.468 AU11h04m+10°25'4.6°1.9°
2019 VU5 - 2026-09-04
astro.vanbuitenen.nl


 
-1 year
-1 month
-1 day
Now
+1 day
+1 month
+1 year

The interactive orbit chart above shows the body's path through the solar system and its position at the given date. Green and blue lines are shown perpendicular to the ecliptic plane: Green if the path is above the ecliptic plane, blue if it is below. (Left-click and drag to rotate the view; Right-click and drag to move the view; Use scroll wheel to zoom in our out.)

The orbital elements of 2019 VU5 are:

            e (Eccentricity)                : 0.7066728
            a (Semimajor axis)              : 1.8449834
            i (Inclination)                 : 6.47957
            Ω (Longitude of ascending node) : 47.56040
            ω (Argument of perihelion)      : 268.48301
            M (Mean anomaly)                : 243.09972
            Epoch                           : 2026 Jun 09

            L (Longitude of perihelion)     : 136.03366
            B (Latitude of perihelion)      : -6.47729
            P (Orbital period in years)     : 2.51            
        

The light curve chart below shows the estimated development of the minor planet's magnitude.


The all-sky chart below shows the path of the minor planet over the same period as the light curve. The current position is marked yellow.





The following chart shows the path of the minor planet in the next few days. The field of view is optimized for (~10x50) binoculars and finderscopes.




Ephemerides:
Date       Time       RA (2000)    DEC (2000)    delta   radius  elong  phase   PA    magn
2026-09-04 00:00 UT   11 04 19.3   +10 25 25     3.468    2.464    4.6    1.9    49   29.3 
2026-09-04 15:56 UT   11 05 17.2   +10 19 03     3.464    2.460    4.4    1.8    45   29.3 
2026-09-05 00:00 UT   11 05 46.6   +10 15 50     3.462    2.458    4.4    1.8    42   29.3 
2026-09-06 00:00 UT   11 07 14.1   +10 06 12     3.456    2.452    4.2    1.7    35   29.3 
2026-09-07 00:00 UT   11 08 41.9   +09 56 32     3.450    2.446    4.1    1.7    27   29.3 
2026-09-08 00:00 UT   11 10 10.0   +09 46 49     3.444    2.440    4.1    1.7    19   29.3 
2026-09-09 00:00 UT   11 11 38.4   +09 37 04     3.437    2.434    4.2    1.7    11   29.3 
2026-09-10 00:00 UT   11 13 07.0   +09 27 16     3.431    2.428    4.3    1.8     4   29.3 
2026-09-11 00:00 UT   11 14 35.9   +09 17 26     3.424    2.422    4.5    1.9   357   29.3 
2026-09-12 00:00 UT   11 16 05.1   +09 07 33     3.417    2.415    4.8    2.0   351   29.3 
2026-09-13 00:00 UT   11 17 34.5   +08 57 38     3.410    2.409    5.1    2.1   345   29.3 
2026-09-14 00:00 UT   11 19 04.2   +08 47 41     3.403    2.403    5.5    2.3   341   29.3 
2026-09-15 00:00 UT   11 20 34.2   +08 37 41     3.395    2.397    5.9    2.5   336   29.3 
2026-09-16 00:00 UT   11 22 04.4   +08 27 38     3.388    2.391    6.3    2.6   333   29.3 
2026-09-17 00:00 UT   11 23 35.0   +08 17 34     3.380    2.384    6.7    2.8   330   29.3 
2026-09-18 00:00 UT   11 25 05.7   +08 07 26     3.372    2.378    7.2    3.0   327   29.3 
2026-09-19 00:00 UT   11 26 36.8   +07 57 17     3.364    2.372    7.6    3.2   325   29.3 
2026-09-20 00:00 UT   11 28 08.2   +07 47 05     3.355    2.365    8.1    3.4   323   29.3 
2026-09-21 00:00 UT   11 29 39.8   +07 36 51     3.347    2.359    8.6    3.7   321   29.3 
2026-09-22 00:00 UT   11 31 11.7   +07 26 34     3.338    2.352    9.1    3.9   319   29.3 
2026-09-23 00:00 UT   11 32 43.9   +07 16 15     3.330    2.346    9.6    4.1   318   29.3 
2026-09-24 00:00 UT   11 34 16.4   +07 05 54     3.321    2.339   10.1    4.3   316   29.3 


    Terminology:
            
    delta:  distance between minor planet and earth in AU
    radius: distance between minor planet and sun in AU
    magn:   magnitude (brightness) estimate    
    ra:     right ascension in hours (24h = 360deg)
    dec:    declination in degrees
    elong:  elongation in degrees (angle sun-earth-minor planet)    
    phase:  phase angle in degrees (angle sun-minor planet-earth)        
    AU:     Astronomical Unit (mean distance between earth and sun: 149597870.7 km
    

Orbital elements provided by the MPC (Minor Planet Center).
Calculations by a modified version of AAPlus, a C# implementation of the AA+ project by PJ Naughter from the algorithms presented in the book "Astronomical Algorithms" by Jean Meeus.
NGC2000 dso catalog and star labels from VizieR as provided by the Strasbourg astronomical Data Center.
Tycho2 catalog from the ESO archive.